• In France
  • List of Countries
  • For 7 days
  • Water Temperature
  • Satellite Maps
  • Weather Map
  • Weather Widgets
  • user-avatar
    Login

    Hourly Weather Pointe-Noire

    Today, 14 December, Thursday

    Time Temperature Precipitation Wind Pressure Humidity
    00:00 +24°C° 0 mm 1 mps 721 mmHg 77%
    01:00 +24°C° 0 mm 1 mps 721 mmHg 84%
    02:00 +24°C° 0 mm 1 mps 721 mmHg 86%
    03:00 +24°C° 0 mm 1 mps 721 mmHg 89%
    04:00 +24°C° 0 mm 1 mps 721 mmHg 92%
    05:00 +24°C° 0 mm 1 mps 721 mmHg 91%
    06:00 +25°C° 0 mm 1 mps 721 mmHg 90%
    07:00 +25°C° 0 mm 1 mps 721 mmHg 89%
    08:00 +27°C° 0 mm 1 mps 721 mmHg 78%
    09:00 +29°C° 0 mm 1 mps 721 mmHg 67%
    10:00 +31°C° 0 mm 1 mps 721 mmHg 55%
    11:00 +33°C° 0 mm 1 mps 721 mmHg 47%
    12:00 +35°C° 0 mm 1 mps 721 mmHg 39%
    13:00 +35°C° 0 mm 0 mps 720 mmHg 31%
    14:00 +37°C° 0 mm 1 mps 720 mmHg 31%
    15:00 +36°C° 0 mm 1 mps 719 mmHg 31%
    16:00 +35°C° 0 mm 1 mps 718 mmHg 30%
    17:00 +33°C° 0 mm 1 mps 718 mmHg 38%
    18:00 +31°C° 0 mm 1 mps 719 mmHg 45%
    19:00 +28°C° 0 mm 1 mps 719 mmHg 53%
    20:00 +27°C° 0 mm 1 mps 719 mmHg 61%
    21:00 +27°C° 0 mm 1 mps 720 mmHg 69%
    22:00 +26°C° 0 mm 2 mps 720 mmHg 77%
    23:00 +26°C° 0 mm 2 mps 720 mmHg 82%

    Tomorrow, 15 December, Friday

    Time Temperature Precipitation Wind Pressure Humidity
    00:00 +25°C° 0 mm 2 mps 720 mmHg 86%
    01:00 +25°C° 0 mm 2 mps 720 mmHg 90%
    02:00 +25°C° 0 mm 2 mps 720 mmHg 90%
    03:00 +25°C° 0 mm 2 mps 720 mmHg 90%
    04:00 +25°C° 0 mm 1 mps 720 mmHg 89%
    05:00 +25°C° 0 mm 1 mps 720 mmHg 90%
    06:00 +25°C° 0 mm 1 mps 720 mmHg 91%
    07:00 +25°C° 0 mm 1 mps 720 mmHg 92%
    08:00 +26°C° 0 mm 1 mps 721 mmHg 83%
    09:00 +28°C° 0 mm 1 mps 721 mmHg 73%
    10:00 +30°C° 0 mm 1 mps 721 mmHg 64%
    11:00 +32°C° 0 mm 1 mps 721 mmHg 57%
    12:00 +33°C° 0 mm 1 mps 720 mmHg 50%
    13:00 +35°C° 0 mm 1 mps 720 mmHg 43%
    14:00 +35°C° 0 mm 1 mps 719 mmHg 43%
    15:00 +34°C° 0 mm 1 mps 719 mmHg 44%
    16:00 +34°C° 0 mm 1 mps 718 mmHg 44%
    17:00 +32°C° 0 mm 1 mps 718 mmHg 52%
    18:00 +30°C° 0 mm 1 mps 719 mmHg 60%
    19:00 +28°C° 0 mm 2 mps 719 mmHg 67%
    20:00 +27°C° 0 mm 2 mps 719 mmHg 73%
    21:00 +27°C° 0 mm 2 mps 720 mmHg 78%
    22:00 +26°C° 0 mm 2 mps 720 mmHg 83%
    23:00 +25°C° 0 mm 2 mps 720 mmHg 86%

    Day after tomorrow, 16 December, Saturday

    Time Temperature Precipitation Wind Pressure Humidity
    00:00 +25°C° 0 mm 2 mps 720 mmHg 88%
    01:00 +24°C° 0 mm 1 mps 720 mmHg 91%
    02:00 +24°C° 0 mm 1 mps 720 mmHg 91%
    03:00 +24°C° 0 mm 1 mps 720 mmHg 92%
    04:00 +24°C° 0 mm 1 mps 719 mmHg 92%
    05:00 +24°C° 0 mm 1 mps 720 mmHg 91%
    06:00 +25°C° 0 mm 1 mps 720 mmHg 91%
    07:00 +25°C° 0 mm 1 mps 720 mmHg 91%
    08:00 +26°C° 0 mm 1 mps 721 mmHg 83%
    09:00 +28°C° 0 mm 1 mps 721 mmHg 76%
    10:00 +29°C° 0 mm 1 mps 722 mmHg 68%
    11:00 +31°C° 0 mm 1 mps 721 mmHg 60%
    12:00 +33°C° 0 mm 1 mps 720 mmHg 52%
    13:00 +35°C° 0 mm 1 mps 719 mmHg 44%
    14:00 +34°C° 0 mm 1 mps 719 mmHg 43%
    15:00 +34°C° 0 mm 1 mps 718 mmHg 42%
    16:00 +34°C° 0 mm 1 mps 718 mmHg 41%
    17:00 +32°C° 0 mm 1 mps 718 mmHg 49%
    18:00 +30°C° 0 mm 1 mps 718 mmHg 57%
    19:00 +28°C° 0 mm 1 mps 719 mmHg 65%
    20:00 +27°C° 0 mm 2 mps 719 mmHg 71%
    21:00 +27°C° 0 mm 2 mps 720 mmHg 77%
    22:00 +26°C° 0 mm 2 mps 720 mmHg 83%
    23:00 +26°C° 0 mm 2 mps 720 mmHg 85%

    17 December, Sunday

    Time Temperature Precipitation Wind Pressure Humidity
    00:00 +25°C° 0 mm 2 mps 720 mmHg 87%
    01:00 +25°C° 0 mm 2 mps 720 mmHg 89%
    02:00 +25°C° 0.1 mm 2 mps 720 mmHg 89%
    03:00 +25°C° 0.1 mm 2 mps 720 mmHg 90%
    04:00 +25°C° 0.1 mm 1 mps 719 mmHg 90%
    05:00 +25°C° 0 mm 1 mps 720 mmHg 90%
    06:00 +25°C° 0 mm 1 mps 720 mmHg 90%
    07:00 +25°C° 0 mm 1 mps 720 mmHg 90%
    08:00 +26°C° 0 mm 1 mps 721 mmHg 84%
    09:00 +27°C° 0 mm 1 mps 721 mmHg 78%
    10:00 +28°C° 0 mm 1 mps 721 mmHg 72%
    11:00 +30°C° 0 mm 1 mps 721 mmHg 63%
    12:00 +32°C° 0 mm 1 mps 720 mmHg 55%
    13:00 +34°C° 0 mm 1 mps 719 mmHg 46%
    14:00 +33°C° 0 mm 1 mps 719 mmHg 45%
    15:00 +33°C° 0 mm 1 mps 718 mmHg 44%
    16:00 +33°C° 0 mm 1 mps 718 mmHg 42%
    17:00 +31°C° 0 mm 1 mps 718 mmHg 50%
    18:00 +29°C° 0 mm 1 mps 719 mmHg 57%
    19:00 +27°C° 0 mm 1 mps 719 mmHg 64%
    20:00 +27°C° 0 mm 1 mps 720 mmHg 70%
    21:00 +26°C° 0 mm 2 mps 720 mmHg 76%
    22:00 +26°C° 0 mm 2 mps 721 mmHg 82%
    23:00 +25°C° 0 mm 2 mps 721 mmHg 84%

    18 December, Monday

    Time Temperature Precipitation Wind Pressure Humidity
    00:00 +25°C° 0 mm 2 mps 720 mmHg 87%
    01:00 +25°C° 0 mm 2 mps 720 mmHg 89%
    02:00 +25°C° 0 mm 2 mps 720 mmHg 89%
    03:00 +25°C° 0 mm 2 mps 720 mmHg 89%
    04:00 +25°C° 0 mm 1 mps 720 mmHg 89%
    05:00 +25°C° 0 mm 1 mps 720 mmHg 89%
    06:00 +25°C° 0 mm 1 mps 721 mmHg 90%
    07:00 +25°C° 0 mm 1 mps 721 mmHg 90%
    08:00 +26°C° 0 mm 1 mps 721 mmHg 83%
    09:00 +27°C° 0 mm 1 mps 721 mmHg 76%
    10:00 +28°C° 0 mm 1 mps 722 mmHg 70%
    11:00 +30°C° 0 mm 1 mps 721 mmHg 61%
    12:00 +32°C° 0 mm 1 mps 720 mmHg 52%
    13:00 +34°C° 0 mm 1 mps 719 mmHg 43%
    14:00 +34°C° 0 mm 1 mps 719 mmHg 42%
    15:00 +34°C° 0 mm 1 mps 718 mmHg 41%
    16:00 +34°C° 0 mm 1 mps 718 mmHg 40%
    17:00 +32°C° 0 mm 1 mps 718 mmHg 48%
    18:00 +30°C° 0 mm 1 mps 718 mmHg 55%
    19:00 +28°C° 0 mm 1 mps 719 mmHg 63%
    20:00 +27°C° 0 mm 2 mps 719 mmHg 69%
    21:00 +26°C° 0 mm 2 mps 720 mmHg 76%
    22:00 +26°C° 0 mm 2 mps 720 mmHg 82%
    23:00 +25°C° 0 mm 2 mps 720 mmHg 84%

    19 December, Tuesday

    Time Temperature Precipitation Wind Pressure Humidity
    00:00 +25°C° 0 mm 2 mps 720 mmHg 87%
    01:00 +25°C° 0 mm 2 mps 720 mmHg 89%
    02:00 +25°C° 0 mm 2 mps 720 mmHg 89%
    03:00 +25°C° 0 mm 1 mps 720 mmHg 90%
    04:00 +24°C° 0 mm 1 mps 720 mmHg 90%
    05:00 +24°C° 0 mm 1 mps 720 mmHg 90%
    06:00 +24°C° 0 mm 1 mps 721 mmHg 91%
    07:00 +24°C° 0 mm 1 mps 721 mmHg 91%
    08:00 +26°C° 0 mm 1 mps 721 mmHg 83%
    09:00 +27°C° 0 mm 1 mps 721 mmHg 76%
    10:00 +29°C° 0 mm 1 mps 722 mmHg 68%
    11:00 +31°C° 0 mm 1 mps 721 mmHg 59%
    12:00 +33°C° 0 mm 1 mps 720 mmHg 50%
    13:00 +35°C° 0 mm 1 mps 719 mmHg 41%
    14:00 +35°C° 0 mm 1 mps 719 mmHg 39%
    15:00 +35°C° 0 mm 1 mps 718 mmHg 38%
    16:00 +35°C° 0 mm 1 mps 718 mmHg 36%
    17:00 +32°C° 0 mm 1 mps 718 mmHg 44%
    18:00 +30°C° 0 mm 1 mps 718 mmHg 51%
    19:00 +28°C° 0 mm 2 mps 719 mmHg 59%
    20:00 +27°C° 0 mm 2 mps 719 mmHg 66%
    21:00 +27°C° 0 mm 2 mps 720 mmHg 74%
    22:00 +26°C° 0 mm 2 mps 720 mmHg 82%
    23:00 +25°C° 0 mm 2 mps 720 mmHg 84%
    Show more